Time,TemperatureF,DewpointF,PressureIn,WindDirection,WindDirectionDegrees,WindSpeedMPH,WindSpeedGustMPH,Humidity,HourlyPrecipIn,Conditions,Clouds,dailyrainin,SolarRadiationWatts/m^2,SoftwareType,DateUTC
2013-01-25 00:03:00,28.0,12.0,-100.00,NNE,15,5.0,16.0,50,0.00,,,0.00,0.000000,,2013-01-25 05:03:00,
2013-01-25 00:12:00,28.0,12.0,-100.00,NNE,15,5.0,16.0,50,0.00,,,0.00,0.000000,,2013-01-25 05:12:00,
2013-01-25 00:22:00,28.0,12.0,-100.00,NNE,15,5.0,16.0,50,0.00,,,0.00,0.000000,,2013-01-25 05:22:00,
2013-01-25 00:52:00,28.0,13.0,-100.00,NNE,15,5.0,15.0,53,0.00,,,0.00,0.000000,,2013-01-25 05:52:00,
2013-01-25 01:02:00,28.0,13.0,-100.00,NNE,15,5.0,15.0,53,0.00,,,0.00,0.000000,,2013-01-25 06:02:00,
2013-01-25 01:12:00,28.0,13.0,-100.00,NNE,15,5.0,15.0,53,0.00,,,0.00,0.000000,,2013-01-25 06:12:00,
2013-01-25 01:22:00,28.0,13.0,-100.00,NNE,15,5.0,15.0,53,0.00,,,0.00,0.000000,,2013-01-25 06:22:00,
2013-01-25 01:52:00,28.0,13.0,-100.00,NNE,25,5.0,13.0,53,0.00,,,0.00,0.000000,,2013-01-25 06:52:00,
2013-01-25 02:02:00,28.0,13.0,-100.00,NNE,25,5.0,13.0,53,0.00,,,0.00,0.000000,,2013-01-25 07:02:00,
2013-01-25 02:11:00,28.0,13.0,-100.00,NNE,25,5.0,13.0,53,0.00,,,0.00,0.000000,,2013-01-25 07:11:00,
2013-01-25 02:22:00,28.0,13.0,-100.00,NNE,25,5.0,13.0,53,0.00,,,0.00,0.000000,,2013-01-25 07:22:00,
2013-01-25 02:52:00,28.0,14.0,-100.00,NNE,32,4.0,12.0,54,0.00,,,0.00,0.000000,,2013-01-25 07:52:00,
2013-01-25 03:02:00,28.0,14.0,-100.00,NNE,32,4.0,12.0,54,0.00,,,0.00,0.000000,,2013-01-25 08:02:00,
2013-01-25 03:12:00,28.0,14.0,-100.00,NNE,32,4.0,12.0,54,0.00,,,0.00,0.000000,,2013-01-25 08:12:00,
2013-01-25 03:21:00,28.0,14.0,-100.00,NNE,32,4.0,12.0,54,0.00,,,0.00,0.000000,,2013-01-25 08:21:00,
2013-01-25 03:52:00,29.0,14.0,-100.00,NNE,30,5.0,13.0,54,0.00,,,0.00,0.000000,,2013-01-25 08:52:00,
2013-01-25 04:02:00,29.0,14.0,-100.00,NNE,30,5.0,13.0,54,0.00,,,0.00,0.000000,,2013-01-25 09:02:00,
2013-01-25 04:11:00,29.0,14.0,-100.00,NNE,30,5.0,13.0,54,0.00,,,0.00,0.000000,,2013-01-25 09:11:00,
2013-01-25 04:21:00,29.0,14.0,-100.00,NNE,30,5.0,13.0,54,0.00,,,0.00,0.000000,,2013-01-25 09:21:00,
2013-01-25 04:52:00,28.0,14.0,-100.00,NNE,21,4.0,9.0,56,0.00,,,0.00,0.000000,,2013-01-25 09:52:00,
2013-01-25 05:02:00,28.0,14.0,-100.00,NNE,21,4.0,9.0,56,0.00,,,0.00,0.000000,,2013-01-25 10:02:00,
2013-01-25 05:12:00,28.0,14.0,-100.00,NNE,21,4.0,9.0,56,0.00,,,0.00,0.000000,,2013-01-25 10:12:00,
2013-01-25 05:22:00,28.0,14.0,-100.00,NNE,21,4.0,9.0,56,0.00,,,0.00,0.000000,,2013-01-25 10:22:00,
2013-01-25 05:52:00,28.0,15.0,-100.00,NNE,25,3.0,9.0,57,0.00,,,0.00,0.000000,,2013-01-25 10:52:00,
2013-01-25 06:03:00,28.0,15.0,-100.00,NNE,25,3.0,9.0,57,0.00,,,0.00,0.000000,,2013-01-25 11:03:00,
2013-01-25 06:11:00,28.0,15.0,-100.00,NNE,25,3.0,9.0,57,0.00,,,0.00,0.000000,,2013-01-25 11:11:00,
2013-01-25 06:22:00,28.0,15.0,-100.00,NNE,25,3.0,9.0,57,0.00,,,0.00,0.000000,,2013-01-25 11:22:00,
2013-01-25 06:52:00,29.0,16.0,-100.00,NNE,22,4.0,9.0,58,0.00,,,0.00,0.000000,,2013-01-25 11:52:00,
2013-01-25 07:03:00,29.0,16.0,-100.00,NNE,22,4.0,9.0,58,0.00,,,0.00,0.000000,,2013-01-25 12:03:00,
2013-01-25 07:12:00,29.0,16.0,-100.00,NNE,22,4.0,9.0,58,0.00,,,0.00,0.000000,,2013-01-25 12:12:00,
2013-01-25 07:22:00,29.0,16.0,-100.00,NNE,22,4.0,9.0,58,0.00,,,0.00,0.000000,,2013-01-25 12:22:00,
2013-01-25 07:53:00,29.0,16.0,-100.00,NNE,13,4.0,10.0,59,0.00,,,0.00,2.000000,,2013-01-25 12:53:00,
2013-01-25 08:03:00,29.0,16.0,-100.00,NNE,13,4.0,10.0,59,0.00,,,0.00,2.000000,,2013-01-25 13:03:00,
2013-01-25 08:12:00,29.0,16.0,-100.00,NNE,13,4.0,10.0,59,0.00,,,0.00,2.000000,,2013-01-25 13:12:00,
2013-01-25 08:22:00,29.0,16.0,-100.00,NNE,13,4.0,10.0,59,0.00,,,0.00,2.000000,,2013-01-25 13:22:00,
2013-01-25 08:53:00,31.0,18.0,-100.00,NNE,21,5.0,12.0,58,0.00,,,0.00,61.000000,,2013-01-25 13:53:00,
2013-01-25 09:03:00,31.0,18.0,-100.00,NNE,21,5.0,12.0,58,0.00,,,0.00,61.000000,,2013-01-25 14:03:00,
2013-01-25 09:13:00,31.0,18.0,-100.00,NNE,21,5.0,12.0,58,0.00,,,0.00,61.000000,,2013-01-25 14:13:00,
2013-01-25 09:23:00,31.0,18.0,-100.00,NNE,21,5.0,12.0,58,0.00,,,0.00,61.000000,,2013-01-25 14:23:00,
2013-01-25 09:53:00,33.0,19.0,-100.00,NNE,18,4.0,9.0,57,0.00,,,0.00,140.000000,,2013-01-25 14:53:00,
2013-01-25 10:03:00,33.0,19.0,-100.00,NNE,18,4.0,9.0,57,0.00,,,0.00,140.000000,,2013-01-25 15:03:00,
2013-01-25 10:13:00,33.0,19.0,-100.00,NNE,18,4.0,9.0,57,0.00,,,0.00,140.000000,,2013-01-25 15:13:00,
2013-01-25 10:22:00,33.0,19.0,-100.00,NNE,18,4.0,9.0,57,0.00,,,0.00,140.000000,,2013-01-25 15:22:00,
2013-01-25 10:53:00,35.0,21.0,-100.00,NE,54,5.0,9.0,56,0.00,,,0.00,344.000000,,2013-01-25 15:53:00,
2013-01-25 11:03:00,35.0,21.0,-100.00,NE,54,5.0,9.0,56,0.00,,,0.00,344.000000,,2013-01-25 16:03:00,
2013-01-25 11:12:00,35.0,21.0,-100.00,NE,54,5.0,9.0,56,0.00,,,0.00,344.000000,,2013-01-25 16:12:00,
2013-01-25 11:23:00,35.0,21.0,-100.00,NE,54,5.0,9.0,56,0.00,,,0.00,344.000000,,2013-01-25 16:23:00,
2013-01-25 11:53:00,35.0,21.0,-100.00,North,1,4.0,10.0,57,0.00,,,0.00,420.000000,,2013-01-25 16:53:00,
2013-01-25 12:03:00,35.0,21.0,-100.00,North,1,4.0,10.0,57,0.00,,,0.00,420.000000,,2013-01-25 17:03:00,
2013-01-25 12:12:00,35.0,21.0,-100.00,North,1,4.0,10.0,57,0.00,,,0.00,420.000000,,2013-01-25 17:12:00,
2013-01-25 12:22:00,35.0,21.0,-100.00,North,1,4.0,10.0,57,0.00,,,0.00,420.000000,,2013-01-25 17:22:00,
2013-01-25 12:53:00,35.0,22.0,-100.00,NNE,20,5.0,10.0,58,0.00,,,0.00,318.000000,,2013-01-25 17:53:00,
2013-01-25 13:03:00,35.0,22.0,-100.00,NNE,20,5.0,10.0,58,0.00,,,0.00,318.000000,,2013-01-25 18:03:00,
2013-01-25 13:12:00,35.0,22.0,-100.00,NNE,20,5.0,10.0,58,0.00,,,0.00,318.000000,,2013-01-25 18:12:00,
2013-01-25 13:23:00,35.0,22.0,-100.00,NNE,20,5.0,10.0,58,0.00,,,0.00,318.000000,,2013-01-25 18:23:00,
2013-01-25 13:53:00,34.0,22.0,-100.00,NNE,17,2.0,9.0,61,0.00,,,0.00,126.000000,,2013-01-25 18:53:00,
2013-01-25 14:03:00,34.0,22.0,-100.00,NNE,17,2.0,9.0,61,0.00,,,0.00,126.000000,,2013-01-25 19:03:00,
2013-01-25 14:12:00,34.0,22.0,-100.00,NNE,17,2.0,9.0,61,0.00,,,0.00,126.000000,,2013-01-25 19:12:00,
2013-01-25 14:23:00,34.0,22.0,-100.00,NNE,17,2.0,9.0,61,0.00,,,0.00,126.000000,,2013-01-25 19:23:00,
2013-01-25 14:53:00,34.0,22.0,-100.00,NE,40,3.0,5.0,62,0.00,,,0.00,70.000000,,2013-01-25 19:53:00,
2013-01-25 15:03:00,34.0,22.0,-100.00,NE,40,3.0,5.0,62,0.00,,,0.00,70.000000,,2013-01-25 20:03:00,
2013-01-25 15:12:00,34.0,22.0,-100.00,NE,40,3.0,5.0,62,0.00,,,0.00,70.000000,,2013-01-25 20:12:00,
2013-01-25 15:23:00,34.0,22.0,-100.00,NE,40,3.0,5.0,62,0.00,,,0.00,70.000000,,2013-01-25 20:23:00,
2013-01-25 15:53:00,34.0,23.0,-100.00,NNE,21,2.0,9.0,65,0.00,,,0.00,23.000000,,2013-01-25 20:53:00,
2013-01-25 16:02:00,34.0,23.0,-100.00,NNE,21,2.0,9.0,65,0.00,,,0.00,23.000000,,2013-01-25 21:02:00,
2013-01-25 16:12:00,34.0,23.0,-100.00,NNE,21,2.0,9.0,65,0.00,,,0.00,23.000000,,2013-01-25 21:12:00,
2013-01-25 16:23:00,34.0,23.0,-100.00,NNE,21,2.0,9.0,65,0.00,,,0.00,23.000000,,2013-01-25 21:23:00,
2013-01-25 16:52:00,35.0,26.0,-100.00,NNE,14,3.0,6.0,68,0.00,,,0.00,11.000000,,2013-01-25 21:52:00,
2013-01-25 17:03:00,35.0,26.0,-100.00,NNE,14,3.0,6.0,68,0.00,,,0.00,11.000000,,2013-01-25 22:03:00,
2013-01-25 17:12:00,35.0,26.0,-100.00,NNE,14,3.0,6.0,68,0.00,,,0.00,11.000000,,2013-01-25 22:12:00,
2013-01-25 17:23:00,35.0,26.0,-100.00,NNE,14,3.0,6.0,68,0.00,,,0.00,11.000000,,2013-01-25 22:23:00,
2013-01-25 17:53:00,35.0,27.0,-100.00,NE,53,4.0,10.0,72,0.03,,,0.03,3.000000,,2013-01-25 22:53:00,
2013-01-25 18:02:00,35.0,27.0,-100.00,NE,53,4.0,10.0,72,0.03,,,0.03,3.000000,,2013-01-25 23:02:00,
2013-01-25 18:12:00,35.0,27.0,-100.00,NE,53,4.0,10.0,72,0.03,,,0.03,3.000000,,2013-01-25 23:12:00,
2013-01-25 18:22:00,35.0,27.0,-100.00,NE,53,4.0,10.0,72,0.03,,,0.03,3.000000,,2013-01-25 23:22:00,
2013-01-25 18:53:00,35.0,27.0,-100.00,ENE,62,5.0,9.0,73,0.06,,,0.09,0.000000,,2013-01-25 23:53:00,
2013-01-25 19:02:00,35.0,27.0,-100.00,ENE,62,5.0,9.0,73,0.06,,,0.09,0.000000,,2013-01-26 00:02:00,
2013-01-25 19:12:00,35.0,27.0,-100.00,ENE,62,5.0,9.0,73,0.06,,,0.09,0.000000,,2013-01-26 00:12:00,
2013-01-25 19:22:00,35.0,27.0,-100.00,ENE,62,5.0,9.0,73,0.06,,,0.09,0.000000,,2013-01-26 00:22:00,
2013-01-25 19:53:00,36.0,28.0,-100.00,NNW,343,3.0,7.0,73,0.05,,,0.14,0.000000,,2013-01-26 00:53:00,
2013-01-25 20:02:00,36.0,28.0,-100.00,NNW,343,3.0,7.0,73,0.05,,,0.14,0.000000,,2013-01-26 01:02:00,
2013-01-25 20:12:00,36.0,28.0,-100.00,NNW,343,3.0,7.0,73,0.05,,,0.14,0.000000,,2013-01-26 01:12:00,
2013-01-25 20:22:00,36.0,28.0,-100.00,NNW,343,3.0,7.0,73,0.05,,,0.14,0.000000,,2013-01-26 01:22:00,
2013-01-25 20:52:00,37.0,29.0,-100.00,NW,308,4.0,16.0,73,0.06,,,0.20,0.000000,,2013-01-26 01:52:00,
2013-01-25 21:02:00,37.0,29.0,-100.00,NW,308,4.0,16.0,73,0.06,,,0.20,0.000000,,2013-01-26 02:02:00,
2013-01-25 21:12:00,37.0,29.0,-100.00,NW,308,4.0,16.0,73,0.06,,,0.20,0.000000,,2013-01-26 02:12:00,
2013-01-25 21:22:00,37.0,29.0,-100.00,NW,308,4.0,16.0,73,0.06,,,0.20,0.000000,,2013-01-26 02:22:00,
2013-01-25 21:52:00,34.0,26.0,-100.00,WNW,292,4.0,11.0,73,0.01,,,0.21,0.000000,,2013-01-26 02:52:00,
2013-01-25 22:02:00,34.0,26.0,-100.00,WNW,292,4.0,11.0,73,0.01,,,0.21,0.000000,,2013-01-26 03:02:00,
2013-01-25 22:12:00,34.0,26.0,-100.00,WNW,292,4.0,11.0,73,0.01,,,0.21,0.000000,,2013-01-26 03:12:00,
2013-01-25 22:22:00,34.0,26.0,-100.00,WNW,292,4.0,11.0,73,0.01,,,0.21,0.000000,,2013-01-26 03:22:00,
2013-01-25 22:52:00,33.0,25.0,-100.00,WNW,296,3.0,11.0,73,0.06,,,0.27,0.000000,,2013-01-26 03:52:00,
2013-01-25 23:02:00,33.0,25.0,-100.00,WNW,296,3.0,11.0,73,0.06,,,0.27,0.000000,,2013-01-26 04:02:00,
2013-01-25 23:12:00,33.0,25.0,-100.00,WNW,296,3.0,11.0,73,0.06,,,0.27,0.000000,,2013-01-26 04:12:00,
2013-01-25 23:21:00,33.0,25.0,-100.00,WNW,296,3.0,11.0,73,0.06,,,0.27,0.000000,,2013-01-26 04:21:00,
2013-01-25 23:52:00,34.0,27.0,-100.00,West,278,2.0,7.0,74,0.00,,,0.27,0.000000,,2013-01-26 04:52:00,